Imperial, NE

3:50 AM MDT on May 25, 2017 (GMT -0600)
Imperial Municipal

Weather History for KIML - November, 2014

Change the Weather History Date:

Thursday, November 6, 2014

  Actual Average Record
Temperature  
Mean Temperature 44 °F 42 °F  
Max Temperature 63 °F 56 °F 83 °F (1980)
Min Temperature 25 °F 28 °F 7 °F (1959)
Degree Days  
Heating Degree Days 21 23  
Month to date heating degree days 80 132  
Cooling Degree Days 0 0  
Month to date cooling degree days 0 0  
Year to date cooling degree days 955 963  
Moisture  
Dew Point 29 °F    
Average Humidity 58    
Maximum Humidity 85    
Minimum Humidity 30    
Precipitation  
Precipitation 0.00 in 0.02 in 0.82 in (1953)
Sea Level Pressure  
Sea Level Pressure 30.33 in    
Wind  
Wind Speed 9 mph (SSW)    
Max Wind Speed 16 mph    
Max Gust Speed 22 mph    
Visibility 10 miles    
Events      
T = Trace of Precipitation, MM = Missing Value Source: NWS Daily Summary

Daily Weather History Graph

Daily Weather History Graph

Search for Another Location

Airport or City:

Trip Planner

Search our weather history database for the weather conditions in past years. The results will help you decide how hot, cold, wet, or windy it might be!

Date:

Astronomy

Nov. 06, 2014 Rise Set
Actual Time 6:22 AM MST 4:37 PM MST
Civil Twilight 5:53 AM MST 5:06 PM MST
Nautical Twilight 5:21 AM MST 5:38 PM MST
Astronomical Twilight 4:49 AM MST 6:10 PM MST
Moon 4:46 PM MST (11/6) 5:55 AM MST (11/6)
Length of Visible Light 11h 12m
Length of Day
10h 15m
Full, 100% of the Moon is Illuminated
Nov 6
Full
Nov 6
Full
Nov 14
Last Quarter
Nov 22
New
Nov 29
First Quarter

Hourly Weather History & Observations

Time (MST) Temp. Windchill Dew Point Humidity Pressure Visibility Wind Dir Wind Speed Gust Speed Precip Events Conditions
12:53 AM 33.1 °F 26.9 °F 27.0 °F 78% 30.42 in 10.0 mi West 6.9 mph - N/A   Clear
1:53 AM 34.0 °F 28.0 °F 27.0 °F 75% 30.43 in 10.0 mi West 6.9 mph - N/A   Clear
2:53 AM 33.1 °F 27.7 °F 27.0 °F 78% 30.43 in 10.0 mi WNW 5.8 mph - N/A   Clear
3:53 AM 30.0 °F 24.1 °F 25.0 °F 82% 30.45 in 10.0 mi WNW 5.8 mph - N/A   Clear
4:53 AM 30.9 °F 25.2 °F 26.1 °F 82% 30.46 in 10.0 mi WNW 5.8 mph - N/A   Clear
5:53 AM 28.9 °F 23.9 °F 24.1 °F 82% 30.48 in 10.0 mi WNW 4.6 mph - N/A   Clear
6:53 AM 28.0 °F - 23.0 °F 81% 30.48 in 10.0 mi Calm Calm - N/A   Clear
7:53 AM 34.0 °F 31.0 °F 28.0 °F 79% 30.49 in 10.0 mi WSW 3.5 mph - N/A   Clear
8:53 AM 44.1 °F 42.5 °F 32.0 °F 63% 30.48 in 10.0 mi SW 3.5 mph - N/A   Clear
9:53 AM 51.1 °F - 30.9 °F 46% 30.46 in 10.0 mi South 9.2 mph - N/A   Clear
10:53 AM 55.9 °F - 30.9 °F 39% 30.41 in 10.0 mi South 10.4 mph - N/A   Clear
11:53 AM 59.0 °F - 30.9 °F 35% 30.37 in 10.0 mi SSW 13.8 mph - N/A   Clear
12:53 PM 61.0 °F - 32.0 °F 34% 30.33 in 10.0 mi SW 9.2 mph - N/A   Clear
1:53 PM 62.1 °F - 32.0 °F 32% 30.30 in 10.0 mi South 12.7 mph - N/A   Clear
2:53 PM 63.0 °F - 30.9 °F 30% 30.28 in 10.0 mi SSW 10.4 mph - N/A   Clear
3:53 PM 61.0 °F - 30.9 °F 32% 30.26 in 10.0 mi SSE 11.5 mph - N/A   Clear
4:53 PM 48.0 °F - 28.9 °F 48% 30.26 in 10.0 mi SE 10.4 mph - N/A   Clear
5:53 PM 45.0 °F 40.1 °F 30.0 °F 56% 30.26 in 10.0 mi SSE 9.2 mph - N/A   Clear
6:53 PM 46.9 °F - 30.0 °F 52% 30.24 in 10.0 mi SSE 10.4 mph - N/A   Clear
7:53 PM 50.0 °F - 30.9 °F 48% 30.20 in 10.0 mi South 13.8 mph - N/A   Clear
8:53 PM 46.9 °F - 30.0 °F 52% 30.16 in 10.0 mi South 12.7 mph - N/A   Clear
9:53 PM 48.0 °F - 30.0 °F 50% 30.11 in 10.0 mi South 15.0 mph - N/A   Clear
10:53 PM 46.9 °F - 30.0 °F 52% 30.06 in 10.0 mi SSW 12.7 mph - N/A   Clear
11:53 PM 45.0 °F 40.1 °F 30.0 °F 56% 30.03 in 10.0 mi SSW 9.2 mph - N/A   Clear